Regional Weather Roundup
Issued by NWS Newport/Morehead, NC

Current Version | Previous Version | Graphics & Text | Print | Product List | Glossary Off
Versions: 1 2 3 4 5 6 7 8 9 10 11 12 13 14 15 16 17 18 19 20 21 22 23 24 25 26 27 28 29 30 31 32 33 34 35 36 37 38 39 40 41 42 43 44 45 46 47 48 49 50

000
ASUS42 KMHX 031025
RWRMHX
WEATHER ROUNDUP FOR EASTERN NORTH CAROLINA
NATIONAL WEATHER SERVICE NEWPORT/MOREHEAD CITY NC
500 AM EST SAT DEC 03 2016

NOTE: "FAIR" INDICATES FEW OR NO CLOUDS BELOW 12,000 FEET
WITH NO SIGNIFICANT WEATHER AND/OR OBSTRUCTIONS TO VISIBILITY

NCZ015>017-031-032-045>047-102-103-031100-
NORTH COAST

CITY           SKY/WX    TMP DP  RH WIND       PRES   REMARKS
EDENTON        CLEAR     37  33  84 CALM      30.21R
ELIZABETH CITY CLEAR     34  30  85 W8        30.19R
KITTY HAWK     SUNNY     44  33  66 NW9G16    30.15R
MANTEO         CLEAR     43  30  59 N12G23    30.17R

$$

NCZ045>047-081-094-103-104-031100-
CENTRAL COAST

CITY           SKY/WX    TMP DP  RH WIND       PRES   REMARKS
FRISCO         CLEAR     46  36  68 N9G18     30.16

$$

NCZ095-097-098-100-101-031100-
SOUTHERN COAST

CITY           SKY/WX    TMP DP  RH WIND       PRES   REMARKS
BEAUFORT       CLEAR     43  34  70 N10       30.19R
CEDAR ISLAND   NOT AVBL
JACKSONVILLE   CLOUDY    42  33  70 N10       30.20F
PINEY ISLAND   SUNNY    N/A N/A N/A N10       30.19R
WILMINGTON     PTCLDY    39  34  82 NW5       30.21R


$$

NCZ011>013-027>030-043-044-078>080-089-090>093-098-031100-
COASTAL PLAIN

CITY           SKY/WX    TMP DP  RH WIND       PRES   REMARKS
AHOSKIE        CLEAR     33  30  88 CALM      30.22S
CLINTON        NOT AVBL
ELIZABETHTOWN  CLOUDY    40  33  76 CALM      30.22R
GOLDSBORO      CLEAR     41  30  64 NW5       30.21S
GREENVILLE     CLEAR     37  32  81 CALM      30.24R
HAVELOCK       PTCLDY    44  33  65 N14       30.21R
KENANSVILLE    CLOUDY    41  32  70 N9        30.22S
KINSTON          N/A     35  32  87 CALM      30.23S
NEW BERN       PTCLDY    39  32  76 NW5       30.22R
RICHLANDS      CLOUDY    31  30  96 N6        30.22
ROCKY MOUNT    NOT AVBL
WASHINGTON     CLEAR     35  31  87 CALM      30.23R
WHITEVILLE     PTCLDY    42  33  71 N3        30.22R

$$

AMZ130-135-150-152-154-156-158-170-250-252-270-ANZ085-086-088-633-658-670-031100-
MARINE OBSERVATIONS

STATION/POSITION TIME  TEMP    WIND        PRES    WAVE   SWELL
                       AIR SEA DIR/SP/G            HT/PER HT/PER
                 (UTC) (F)     (DEG/KT/KT) (MB)    (FT/S) (FT/S)
CHESAPEAKE LIGHT NOT AVBL
64 E VA BEACH    0950   49 60  340/ 21/ 27 1019.2    8/ 6
DUCK             1000   44 56  320/ 15/ 18 1020.7
2 E DUCK         NOT AVBL
OREGON INLET     1000   45 55  320/ 14/ 17 1020.9
13E OREGON INLT  1000      60                N/A     6/ 6   2/ 8
HATTERAS CG      1000   47 59  340/ 23/ 28 1021.1
DIAMOND BUOY     0950   52 75  360/ 23/ 27 1020.2    5/ 5   2/ 8
CAPE LOOKOUT     1000   45     350/ 17/ 20 1021.6
BEAUFORT LAB     1000   44 57  360/ 13/ 15 1021.1
30 SE NEW RVR IN 1008   52 71   10/ 19/ 27 1022.1
30 SE NEW RVR IN NOT AVBL
27 SE WRIGHTSVLE 1008   53 69   30/ 21/ 27 1021.9
5 SE WRIGHTSVLE  1008   46 63   20/ 17/ 31 1022.4
225 S CAPE HAT   0950   66 74  350/ 16/ 19 1019.0    4/ 5   2/ 8
41 SE CHARLESTON 0950   61 75  340/ 16/ 19 1021.2    3/ 4   2/ 8

$$




USA.gov is the U.S. government's official web portal to all federal, state and local government web resources and services.